This is the latest recevied weather packets stored in our database for station/object K3JSE-2. If no packets are shown the sender has not sent any weather packets the latest 1 day(s).
| Time | Temp. | Humidity | Pressure | Rain* | Wind** | Luminosity | Snow |
|---|---|---|---|---|---|---|---|
| 1836274597 | 19.44° C | 61% | 1019.4 hPa | 0 mm | 0 m/s | - | - |
| 1836274322 | 19.44° C | 60% | 1019.4 hPa | 0 mm | 0 m/s | - | - |
| 1836274107 | 18.89° C | 61% | 1019.5 hPa | 0 mm | 0 m/s | - | - |
| 1836274026 | 19.44° C | 60% | 1019.4 hPa | 0 mm | 0 m/s | - | - |
| 1778041318 | 18.89° C | 57% | 1009.8 hPa | 0 mm | 0 m/s | - | - |
| 1778041061 | 18.89° C | 57% | 1009.9 hPa | 0 mm | 0.45 m/s, 273° | - | - |
| 1778040783 | 18.89° C | 57% | 1009.9 hPa | 0 mm | 0 m/s | - | - |
| 1778040602 | 18.89° C | 57% | 1009.8 hPa | 0 mm | 1.34 m/s, 237° | - | - |
| 1778040513 | 18.89° C | 57% | 1009.8 hPa | 0 mm | 1.34 m/s, 272° | - | - |
| 1778040258 | 18.89° C | 57% | 1009.8 hPa | 0 mm | 0.89 m/s, 244° | - | - |
| 1778040003 | 18.89° C | 57% | 1009.8 hPa | 0 mm | 0.89 m/s, 253° | - | - |
| 1778039836 | 18.89° C | 57% | 1009.8 hPa | 0 mm | 0.45 m/s, 321° | - | - |
| 1778039738 | 18.89° C | 57% | 1009.7 hPa | 0 mm | 0 m/s | - | - |
| 1778039453 | 19.44° C | 56% | 1009.8 hPa | 0 mm | 0 m/s | - | - |
| 1778039203 | 18.89° C | 57% | 1009.8 hPa | 0 mm | 0 m/s | - | - |
| 1778039080 | 18.89° C | 56% | 1009.8 hPa | 0 mm | 1.34 m/s, 250° | - | - |
| 1778038948 | 18.89° C | 57% | 1009.8 hPa | 0 mm | 1.79 m/s, 311° | - | - |
| 1778038681 | 18.89° C | 57% | 1009.8 hPa | 0 mm | 0.45 m/s, 232° | - | - |
| 1778038418 | 18.89° C | 56% | 1009.8 hPa | 0 mm | 1.34 m/s, 234° | - | - |
| 1778038374 | 18.89° C | 56% | 1009.8 hPa | 0 mm | 0.89 m/s, 268° | - | - |
| 1778038173 | 19.44° C | 56% | 1009.8 hPa | 0 mm | 0 m/s | - | - |
| 1778037921 | 19.44° C | 56% | 1009.7 hPa | 0 mm | 0.89 m/s, 217° | - | - |
| 1778037639 | 19.44° C | 56% | 1009.7 hPa | 0 mm | 1.79 m/s, 264° | - | - |
| 1778037628 | 19.44° C | 56% | 1009.7 hPa | 0 mm | 0.89 m/s, 295° | - | - |
| 1778037358 | 19.44° C | 56% | 1009.7 hPa | 0 mm | 0.45 m/s, 241° | - | - |
* Rain latest hour (hover to see other rain measurements)
** Current wind speed in m/s (hover to see current wind gust speed)